Погода в Быковском

Россия / Республика Саха (Якутия)     72°00′16″N   129°06′34″E
темп.,
°C
ветер,
м/с
пор.,
м/с
влажн.,
%
обл.,
%
осадки,
мм/ч
давл.,
гПа
погр.,
м
29 июля, чт
чт2900:00+3вюв579393 0.0 1022144
03:00+3юв5792100 0.0 1022151
06:00+3юв68925 0.0 1021165
09:00+4юв579020 0.0 1021132
12:00+5юв568619 0.0 102088
15:00+5юв45855 0.0 101962
18:00+6юв44825 0.0 101938
21:00+6ююв34811 0.0 101827
30 июля, пт
пт3000:00+5ююв44802 0.0 101831
03:00+5ююв458359 0.0 101836
06:00+5ююв448472 0.0 101841
09:00+5ююв44825 0.0 101840
12:00+6ююв44775 0.0 101737
15:00+8ююв446969 0.0 101630
18:00+9ююв446345 0.0 101522
21:00+11ю335816 0.0 101413
31 июля, сб
сб3100:00+10ссз55595 0.0 101521
03:00+4ссз8118738 0.0 1016105
06:00+4с678970 0.0 101892
09:00+4ссв458846 0.0 101978
12:00+4св239030 0.0 101968
15:00+4в22905 0.0 102070
18:00+4в22899 0.0 102063
21:00+4юв119290 0.0 102151
1 августа, вс
вс100:00+3юз229799 0.0 102154
03:00+3вюв449699 0.1 102294
06:00+3юв679294 0.0 1023180
09:00+3юв689091 0.0 1023210
12:00+4юв710885 0.0 1023193
15:00+4вюв68895 0.0 1022119
18:00+4вюв58871 0.0 102288
21:00+5юв58831 0.0 102289
2 августа, пн
пн200:00+5юв57835 0.0 102163
03:00+5юв57835 0.0 102163
06:00+4юв45865 0.0 102157
09:00+5юв448543 0.0 102154
12:00+5юв34825 0.0 102046
15:00+7вюв23765 0.0 102032
18:00+7вюв22762 0.0 102025
21:00+7в22775 0.0 102024